Zurück zum Katalog

STARLINK-5757

AktivKommunikationVLEO
NORAD 55580·PAYLOAD·🇺🇸 United States

Gestartet Feb 12, 2023 von Cape Canaveral Space Force Station

Loading…

Nächste Überflüge (nächste 24 Stunden)

TLE

AktuellSource: CelesTrak SupGP

Epoche: Sep 15, 2026, 02:14 UTC

1 55580C 23020M   26258.09354167  .00005525  00000+0  20015-3 0  2583
2 55580  43.0015 349.8972 0001642 262.9652 170.7087 15.27570114    19

Verfolge STARLINK-5757 in Echtzeit mit AllMySat

Download on the App Store